Regional Weather Roundup
Issued by NWS

Home | Current Version | Previous Version | Text Only | Print | Product List | Glossary Off
Versions: 1 2 3 4 5 6 7 8 9 10 11 12 13 14 15 16 17 18 19 20 21 22 23 24 25 26 27 28 29 30 31 32 33 34 35 36 37 38 39 40 41 42 43 44 45 46 47 48 49 50

000
ASUS43 KMKX 181121
RWRWI

WISCONSIN REGIONAL WEATHER ROUNDUP
NATIONAL WEATHER SERVICE MILWAUKEE/SULLIVAN WI
600 AM CDT SAT APR 18 2015

NOTE: "FAIR" INDICATES FEW OR NO CLOUDS BELOW 12,000 FEET WITH NO
SIGNIFICANT WEATHER AND/OR OBSTRUCTIONS TO VISIBILITY.

WIZ001-002-006>008-014>016-023>028-181200-
NORTHWEST WISCONSIN

CITY           SKY/WX    TMP DP  RH WIND       PRES   REMARKS
SUPERIOR ARPT  CLEAR     40  33  74 E16G24    30.20R WCI  32
ASHLAND        CLEAR     37  33  85 NE10      30.21S WCI  30
HAYWARD        CLEAR     41  32  70 NE7       30.15S
SIREN          CLEAR     46  30  54 E6        30.13R
CUMBERLAND     CLEAR     45  30  57 NE10G18   30.12R
RICE LAKE      CLEAR     44  31  61 NE6       30.14R
CHETEK         CLEAR     48  32  53 NE7       30.12R
LADYSMITH      CLEAR     46  32  59 NE8       30.15R
EAU CLAIRE     PTCLDY    46  29  51 NE6       30.11R
MENOMONIE      CLEAR     50  29  43 NE7       30.11R
NEW RICHMOND   CLEAR     46  30  54 NE6       30.11R
OSCEOLA        CLEAR     46  30  55 CALM      30.14R
$$

WIZ003>005-009-010-017-018-181200-
NORTH CENTRAL WISCONSIN

CITY           SKY/WX    TMP DP  RH WIND       PRES   REMARKS
MANITOWISH WTR CLEAR     37  32  82 NE8       30.16R WCI  31
ARBOR VITAE    CLEAR     42  34  74 NE5       30.15R HAZE
WOODRUFF       CLEAR     42  34  74 NE5       30.15R HAZE
RHINELANDER    CLEAR     42  31  64 NE8       30.15R
EAGLE RIVER    CLEAR     37  31  77 NE9       30.15R WCI  31
LAND O LAKES   CLEAR     37  32  83 NE6       30.18S WCI  32
PHILLIPS       CLEAR     41  32  72 NE8       30.13R
TOMAHAWK       CLEAR     43  32  64 CALM      30.14R
MEDFORD        CLEAR     44  31  59 NE9       30.11R
MERRILL        CLEAR     39  30  70 E3        30.12S
$$

WIZ029-030-035-036-043>047-181200-
CENTRAL WISCONSIN

CITY           SKY/WX    TMP DP  RH WIND       PRES   REMARKS
WAUSAU         CLEAR     47  29  49 N5        30.10R
MOSINEE        PTCLDY    46  30  53 NE8       30.12R
MARSHFIELD     CLEAR     48  30  49 NE13      30.11R
STEVENS POINT  CLEAR     45  30  56 NE7       30.11R
WAUPACA        CLEAR     51  32  48 NE5       30.12R
WAUTOMA        PTCLDY    51  34  52 NE14      30.10R
WISC RAPIDS    CLEAR     51  28  41 NE10      30.10R
CAMP DOUGLAS   CLEAR     35  35 100 W2        30.07R
$$

WIZ011>013-019>022-031-037>040-048>050-181200-
NORTHEAST WISCONSIN

CITY           SKY/WX    TMP DP  RH WIND       PRES   REMARKS
ANTIGO         CLEAR     41  33  73 NE7       30.12R
SHAWANO        CLEAR     50  34  55 NE12      30.12R
OCONTO         CLEAR     44  34  67 NE10      30.13R
STURGEON BAY   CLEAR     43  34  70 N17G24    30.15R
GREEN BAY      CLEAR     48  37  65 NE16      30.12R
MANITOWOC      CLEAR     47  36  65 NE8       30.12R
APPLETON       PTCLDY    48  34  57 NE13      30.10R
CLINTONVILLE   CLEAR     46  32  57 NE9       30.10R
OSHKOSH        PTCLDY    50  38  63 NE17G26   30.10R
$$

WIZ032>034-041-042-053>061-181200-
SOUTHWEST WISCONSIN

CITY           SKY/WX    TMP DP  RH WIND       PRES   REMARKS
LA CROSSE      PTCLDY    49  43  80 CALM      30.07R
SPARTA         PTCLDY    34  34 100 CALM      30.08R
VIROQUA        PTCLDY    52  32  46 NE6       30.06R
BOSCOBEL       CLEAR     45  42  89 CALM      30.05R
PRAIRIE DU CHI MOCLDY    48  43  84 CALM      30.04S
PLATTEVILLE    CLEAR     58  41  53 NE10      30.03R
$$

WIZ056-057-062-063-064-067-068-181200-
SOUTH CENTRAL WISCONSIN

CITY           SKY/WX    TMP DP  RH WIND       PRES   REMARKS
REEDSBURG      CLEAR     45  43  91 CALM      30.06R
BARABOO/DELLS  CLEAR     45  40  80 NE3       30.06R
LONE ROCK      CLEAR     42  39  89 CALM      30.05R
MINERAL POINT  CLEAR     59  36  41 NE7       30.04S
MADISON        MOCLDY    45  42  89 CALM      30.04R
MIDDLETON      CLEAR     48  41  77 CALM      30.05R
WATERTOWN      CLEAR     43  42  97 CALM      30.04R
MONROE         PTCLDY    55  45  67 N7        30.04R
JANESVILLE     CLEAR     48  45  87 CALM      30.03R
$$

WIZ051-052-058>065-066-070>072-181200-
SOUTHEAST WISCONSIN

CITY           SKY/WX    TMP DP  RH WIND       PRES   REMARKS
MILWAUKEE      PTCLDY    53  42  66 N6        30.04R
WAUKESHA       CLEAR     48  41  76 E3        30.05R
MILWAUKEE/TIMM CLEAR     50  41  71 CALM      30.05R
RACINE         CLEAR     56  43  61 N8        30.04R
BURLINGTON     CLEAR     43  42  95 CALM      30.03R
KENOSHA        CLEAR     57  45  64 N7        30.03R
FOND DU LAC    PTCLDY    46  41  82 NE8       30.08R
SHEBOYGAN      CLEAR     49  37  63 NE20G29   30.09R
WEST BEND      CLEAR     43  39  87 CALM      30.05R
JUNEAU         PTCLDY    50  43  77 CALM      30.06R
$$

LSZ147-162-181200-
LAKE SUPERIOR

STATION/POSITION TIME  TEMP    WIND        PRES    WAVE
                       AIR SEA DIR/SP/G            HT/PER
                 (UTC) (F)     (DEG/KT/KT) (MB)    (FT/S)
DEVILS ISLAND    1100   37     110/  9/ 10 1024.6R
PORT WING        1000   42      70/  7/ 10 1022.7R
SAXON HARBOR     1040   42      70/  5/ 10 1022.4S
$$

LMZ867-665-643>646-181200-
LAKE MICHIGAN

STATION/POSITION TIME  TEMP    WIND        PRES    WAVE
                       AIR SEA DIR/SP/G            HT/PER
                 (UTC) (F)     (DEG/KT/KT) (MB)    (FT/S)
CHAMBERS ISLAND  1000   41     350/ 16/ 18 1019.6R
NORTHPORT PIER   1100   39     340/ 15/ 17 1020.3R
SISTER BAY       1017   42      10/ 22/ 31   N/A
KEWAUNEE LAKESHO 1100   45      10/ 11/ 16 1019.1R
SHEBOYGAN LAKESH 1100   46      10/ 23/ 25 1019.9R
PORT WASHINGTON  1000   58     320/  7/ 10 1017.3R
MILWAUKEE LAKESH 1100   61     360/ 11/ 15   N/A
KENOSHA   LAKESH 1100   58     340/  7/  8 1016.6R
$$

TC  - TEMPERATURE IN CELSIUS
VSB - VISIBILITY IN STATUTE MILES
WCI - WIND CHILL INDEX
HX  - HEAT INDEX




USA.gov is the U.S. government's official web portal to all federal, state and local government web resources and services.